Time,TemperatureF,DewpointF,PressureIn,WindDirection,WindDirectionDegrees,WindSpeedMPH,WindSpeedGustMPH,Humidity,HourlyPrecipIn,Conditions,Clouds,dailyrainin,SoftwareType,DateUTC
2013-05-04 00:00:00,61.2,16.7,29.84,North,0,0.0,0.0,18,0.00,,,0.00,WUHU216HW,2013-05-04 07:00:00,
2013-05-04 00:02:00,61.2,16.7,29.84,North,0,0.0,0.0,18,0.00,,,0.00,WUHU216HW,2013-05-04 07:02:00,
2013-05-04 00:05:00,61.2,16.7,29.84,North,0,0.0,0.0,18,0.00,,,0.00,WUHU216HW,2013-05-04 07:05:00,
2013-05-04 00:06:00,61.2,16.7,29.84,North,0,0.0,0.0,18,0.00,,,0.00,WUHU216HW,2013-05-04 07:06:00,
2013-05-04 00:07:00,61.2,16.7,29.84,North,0,0.0,0.0,18,0.00,,,0.00,WUHU216HW,2013-05-04 07:07:00,
2013-05-04 00:08:00,61.2,16.7,29.84,North,0,0.0,0.0,18,0.00,,,0.00,WUHU216HW,2013-05-04 07:08:00,
2013-05-04 00:30:00,60.3,16.0,29.83,North,0,0.0,0.0,18,0.00,,,0.00,WUHU216HW,2013-05-04 07:30:00,
2013-05-04 00:31:00,60.3,16.0,29.83,North,0,0.0,0.0,18,0.00,,,0.00,WUHU216HW,2013-05-04 07:31:00,
2013-05-04 00:32:00,60.3,16.0,29.83,North,0,0.0,0.0,18,0.00,,,0.00,WUHU216HW,2013-05-04 07:32:00,
2013-05-04 00:35:00,60.3,16.0,29.83,North,0,0.0,0.0,18,0.00,,,0.00,WUHU216HW,2013-05-04 07:35:00,
2013-05-04 00:36:00,60.3,16.0,29.83,North,0,0.0,0.0,18,0.00,,,0.00,WUHU216HW,2013-05-04 07:36:00,
2013-05-04 00:37:00,60.3,16.0,29.83,North,0,0.0,0.0,18,0.00,,,0.00,WUHU216HW,2013-05-04 07:37:00,
2013-05-04 01:00:00,58.9,14.8,29.83,North,0,0.0,0.0,18,0.00,,,0.00,WUHU216HW,2013-05-04 08:00:00,
2013-05-04 01:01:00,58.9,14.8,29.83,North,0,0.0,0.0,18,0.00,,,0.00,WUHU216HW,2013-05-04 08:01:00,
2013-05-04 01:02:00,58.9,14.8,29.83,North,0,0.0,0.0,18,0.00,,,0.00,WUHU216HW,2013-05-04 08:02:00,
2013-05-04 01:06:00,58.9,14.8,29.83,North,0,0.0,0.0,18,0.00,,,0.00,WUHU216HW,2013-05-04 08:06:00,
2013-05-04 01:07:00,58.9,14.8,29.83,North,0,0.0,0.0,18,0.00,,,0.00,WUHU216HW,2013-05-04 08:07:00,
2013-05-04 01:08:00,58.9,14.8,29.83,North,0,0.0,0.0,18,0.00,,,0.00,WUHU216HW,2013-05-04 08:08:00,
2013-05-04 01:30:00,58.0,14.0,29.82,North,0,0.0,0.0,18,0.00,,,0.00,WUHU216HW,2013-05-04 08:30:00,
2013-05-04 01:31:00,58.0,14.0,29.82,North,0,0.0,0.0,18,0.00,,,0.00,WUHU216HW,2013-05-04 08:31:00,
2013-05-04 01:35:00,58.0,14.0,29.82,North,0,0.0,0.0,18,0.00,,,0.00,WUHU216HW,2013-05-04 08:35:00,
2013-05-04 01:36:00,58.0,14.0,29.82,North,0,0.0,0.0,18,0.00,,,0.00,WUHU216HW,2013-05-04 08:36:00,
2013-05-04 01:37:00,58.0,14.0,29.82,North,0,0.0,0.0,18,0.00,,,0.00,WUHU216HW,2013-05-04 08:37:00,
2013-05-04 02:00:00,57.6,13.8,29.82,North,0,0.0,0.0,18,0.00,,,0.00,WUHU216HW,2013-05-04 09:00:00,
2013-05-04 02:01:00,57.6,13.8,29.82,North,0,0.0,0.0,18,0.00,,,0.00,WUHU216HW,2013-05-04 09:01:00,
2013-05-04 02:06:00,57.6,13.8,29.82,North,0,0.0,0.0,18,0.00,,,0.00,WUHU216HW,2013-05-04 09:06:00,
2013-05-04 02:07:00,57.6,13.8,29.82,North,0,0.0,0.0,18,0.00,,,0.00,WUHU216HW,2013-05-04 09:07:00,
2013-05-04 02:08:00,57.6,13.8,29.82,North,0,0.0,0.0,18,0.00,,,0.00,WUHU216HW,2013-05-04 09:08:00,
2013-05-04 02:30:00,56.7,16.1,29.81,North,0,0.0,0.0,20,0.00,,,0.00,WUHU216HW,2013-05-04 09:30:00,
2013-05-04 02:31:00,56.7,16.1,29.81,North,0,0.0,0.0,20,0.00,,,0.00,WUHU216HW,2013-05-04 09:31:00,
2013-05-04 02:36:00,56.7,16.1,29.81,North,0,0.0,0.0,20,0.00,,,0.00,WUHU216HW,2013-05-04 09:36:00,
2013-05-04 02:37:00,56.7,16.1,29.81,North,0,0.0,0.0,20,0.00,,,0.00,WUHU216HW,2013-05-04 09:37:00,
2013-05-04 02:38:00,56.7,16.1,29.81,North,0,0.0,0.0,20,0.00,,,0.00,WUHU216HW,2013-05-04 09:38:00,
2013-05-04 03:00:00,55.8,15.4,29.81,North,0,0.0,0.0,20,0.00,,,0.00,WUHU216HW,2013-05-04 10:00:00,
2013-05-04 03:01:00,55.8,15.4,29.81,North,0,0.0,0.0,20,0.00,,,0.00,WUHU216HW,2013-05-04 10:01:00,
2013-05-04 03:05:00,55.8,15.4,29.81,North,0,0.0,0.0,20,0.00,,,0.00,WUHU216HW,2013-05-04 10:05:00,
2013-05-04 03:06:00,55.8,15.4,29.81,North,0,0.0,0.0,20,0.00,,,0.00,WUHU216HW,2013-05-04 10:06:00,
2013-05-04 03:08:00,55.8,15.4,29.81,North,0,0.0,0.0,20,0.00,,,0.00,WUHU216HW,2013-05-04 10:08:00,
2013-05-04 03:30:00,54.4,15.1,29.81,North,0,0.0,0.0,21,0.00,,,0.00,WUHU216HW,2013-05-04 10:30:00,
2013-05-04 03:31:00,54.4,15.1,29.81,North,0,0.0,0.0,21,0.00,,,0.00,WUHU216HW,2013-05-04 10:31:00,
2013-05-04 03:32:00,54.4,15.1,29.81,North,0,0.0,0.0,21,0.00,,,0.00,WUHU216HW,2013-05-04 10:32:00,
2013-05-04 03:35:00,54.4,15.1,29.81,North,0,0.0,0.0,21,0.00,,,0.00,WUHU216HW,2013-05-04 10:35:00,
2013-05-04 03:36:00,54.4,15.1,29.81,North,0,0.0,0.0,21,0.00,,,0.00,WUHU216HW,2013-05-04 10:36:00,
2013-05-04 03:37:00,54.4,15.1,29.81,North,0,0.0,0.0,21,0.00,,,0.00,WUHU216HW,2013-05-04 10:37:00,
2013-05-04 04:00:00,54.4,15.1,29.80,North,0,0.0,0.0,21,0.00,,,0.00,WUHU216HW,2013-05-04 11:00:00,
2013-05-04 04:01:00,54.4,15.1,29.80,North,0,0.0,0.0,21,0.00,,,0.00,WUHU216HW,2013-05-04 11:01:00,
2013-05-04 04:05:00,54.4,15.1,29.80,North,0,0.0,0.0,21,0.00,,,0.00,WUHU216HW,2013-05-04 11:05:00,
2013-05-04 04:06:00,54.4,15.1,29.80,North,0,0.0,0.0,21,0.00,,,0.00,WUHU216HW,2013-05-04 11:06:00,
2013-05-04 04:08:00,54.4,15.1,29.80,North,0,0.0,0.0,21,0.00,,,0.00,WUHU216HW,2013-05-04 11:08:00,
2013-05-04 04:30:00,53.5,15.3,29.80,North,0,0.0,0.0,22,0.00,,,0.00,WUHU216HW,2013-05-04 11:30:00,
2013-05-04 04:31:00,53.5,15.3,29.80,North,0,0.0,0.0,22,0.00,,,0.00,WUHU216HW,2013-05-04 11:31:00,
2013-05-04 04:32:00,53.5,15.3,29.80,North,0,0.0,0.0,22,0.00,,,0.00,WUHU216HW,2013-05-04 11:32:00,
2013-05-04 04:35:00,53.5,15.3,29.80,North,0,0.0,0.0,22,0.00,,,0.00,WUHU216HW,2013-05-04 11:35:00,
2013-05-04 04:36:00,53.5,15.3,29.80,North,0,0.0,0.0,22,0.00,,,0.00,WUHU216HW,2013-05-04 11:36:00,
2013-05-04 04:37:00,53.5,15.3,29.80,North,0,0.0,0.0,22,0.00,,,0.00,WUHU216HW,2013-05-04 11:37:00,
2013-05-04 05:00:00,53.3,15.1,29.80,North,0,0.0,0.0,22,0.00,,,0.00,WUHU216HW,2013-05-04 12:00:00,
2013-05-04 05:01:00,53.3,15.1,29.80,North,0,0.0,0.0,22,0.00,,,0.00,WUHU216HW,2013-05-04 12:01:00,
2013-05-04 05:05:00,53.3,15.1,29.80,North,0,0.0,0.0,22,0.00,,,0.00,WUHU216HW,2013-05-04 12:05:00,
2013-05-04 05:06:00,53.3,15.1,29.80,North,0,0.0,0.0,22,0.00,,,0.00,WUHU216HW,2013-05-04 12:06:00,
2013-05-04 05:08:00,53.3,15.1,29.80,North,0,0.0,0.0,22,0.00,,,0.00,WUHU216HW,2013-05-04 12:08:00,
2013-05-04 05:30:00,51.8,15.9,29.80,North,0,0.0,0.0,24,0.00,,,0.00,WUHU216HW,2013-05-04 12:30:00,
2013-05-04 05:31:00,51.8,15.9,29.80,North,0,0.0,0.0,24,0.00,,,0.00,WUHU216HW,2013-05-04 12:31:00,
2013-05-04 05:32:00,51.8,15.9,29.80,North,0,0.0,0.0,24,0.00,,,0.00,WUHU216HW,2013-05-04 12:32:00,
2013-05-04 05:36:00,51.8,15.9,29.80,North,0,0.0,0.0,24,0.00,,,0.00,WUHU216HW,2013-05-04 12:36:00,
2013-05-04 05:37:00,51.8,15.9,29.80,North,0,0.0,0.0,24,0.00,,,0.00,WUHU216HW,2013-05-04 12:37:00,
2013-05-04 05:38:00,51.8,15.9,29.80,North,0,0.0,0.0,24,0.00,,,0.00,WUHU216HW,2013-05-04 12:38:00,
2013-05-04 06:00:00,51.8,15.9,29.81,North,0,0.0,0.0,24,0.00,,,0.00,WUHU216HW,2013-05-04 13:00:00,
2013-05-04 06:01:00,51.8,15.9,29.81,North,0,0.0,0.0,24,0.00,,,0.00,WUHU216HW,2013-05-04 13:01:00,
2013-05-04 06:04:00,51.8,15.9,29.81,North,0,0.0,0.0,24,0.00,,,0.00,WUHU216HW,2013-05-04 13:04:00,
2013-05-04 06:06:00,51.8,15.9,29.81,North,0,0.0,0.0,24,0.00,,,0.00,WUHU216HW,2013-05-04 13:06:00,
2013-05-04 06:07:00,51.8,15.9,29.81,North,0,0.0,0.0,24,0.00,,,0.00,WUHU216HW,2013-05-04 13:07:00,
2013-05-04 06:09:00,51.8,15.9,29.81,North,0,0.0,0.0,24,0.00,,,0.00,WUHU216HW,2013-05-04 13:09:00,
2013-05-04 06:30:00,55.6,18.1,29.82,North,0,0.0,0.0,23,0.00,,,0.00,WUHU216HW,2013-05-04 13:30:00,
2013-05-04 06:31:00,55.6,18.1,29.82,North,0,0.0,0.0,23,0.00,,,0.00,WUHU216HW,2013-05-04 13:31:00,
2013-05-04 06:32:00,55.6,18.1,29.82,North,0,0.0,0.0,23,0.00,,,0.00,WUHU216HW,2013-05-04 13:32:00,
2013-05-04 06:35:00,55.6,18.1,29.82,North,0,0.0,0.0,23,0.00,,,0.00,WUHU216HW,2013-05-04 13:35:00,
2013-05-04 06:36:00,55.6,18.1,29.82,North,0,0.0,0.0,23,0.00,,,0.00,WUHU216HW,2013-05-04 13:36:00,
2013-05-04 06:37:00,55.6,18.1,29.82,North,0,0.0,0.0,23,0.00,,,0.00,WUHU216HW,2013-05-04 13:37:00,
2013-05-04 07:00:00,59.2,20.1,29.82,North,0,0.0,0.0,22,0.00,,,0.00,WUHU216HW,2013-05-04 14:00:00,
2013-05-04 07:01:00,59.2,20.1,29.82,North,0,0.0,0.0,22,0.00,,,0.00,WUHU216HW,2013-05-04 14:01:00,
2013-05-04 07:05:00,59.2,20.1,29.82,North,0,0.0,0.0,22,0.00,,,0.00,WUHU216HW,2013-05-04 14:05:00,
2013-05-04 07:06:00,59.2,20.1,29.82,North,0,0.0,0.0,22,0.00,,,0.00,WUHU216HW,2013-05-04 14:06:00,
2013-05-04 07:30:00,61.6,21.2,29.82,North,0,0.0,0.0,21,0.00,,,0.00,WUHU216HW,2013-05-04 14:30:00,
2013-05-04 07:31:00,61.6,21.2,29.82,North,0,0.0,0.0,21,0.00,,,0.00,WUHU216HW,2013-05-04 14:31:00,
2013-05-04 07:32:00,61.6,21.2,29.82,North,0,0.0,0.0,21,0.00,,,0.00,WUHU216HW,2013-05-04 14:32:00,
2013-05-04 07:35:00,61.6,21.2,29.82,North,0,0.0,0.0,21,0.00,,,0.00,WUHU216HW,2013-05-04 14:35:00,
2013-05-04 07:36:00,61.6,21.2,29.82,North,0,0.0,0.0,21,0.00,,,0.00,WUHU216HW,2013-05-04 14:36:00,
2013-05-04 07:39:00,61.6,21.2,29.82,North,0,0.0,0.0,21,0.00,,,0.00,WUHU216HW,2013-05-04 14:39:00,
2013-05-04 08:00:00,64.1,22.2,29.82,North,0,0.0,0.0,20,0.00,,,0.00,WUHU216HW,2013-05-04 15:00:00,
2013-05-04 08:01:00,64.1,22.2,29.82,North,0,0.0,0.0,20,0.00,,,0.00,WUHU216HW,2013-05-04 15:01:00,
2013-05-04 08:02:00,64.1,22.2,29.82,North,0,0.0,0.0,20,0.00,,,0.00,WUHU216HW,2013-05-04 15:02:00,
2013-05-04 08:05:00,64.1,22.2,29.82,North,0,0.0,0.0,20,0.00,,,0.00,WUHU216HW,2013-05-04 15:05:00,
2013-05-04 08:06:00,64.1,22.2,29.82,North,0,0.0,0.0,20,0.00,,,0.00,WUHU216HW,2013-05-04 15:06:00,
2013-05-04 08:08:00,64.1,22.2,29.82,North,0,0.0,0.0,20,0.00,,,0.00,WUHU216HW,2013-05-04 15:08:00,
2013-05-04 08:30:00,66.2,22.3,29.81,North,0,0.0,0.0,19,0.00,,,0.00,WUHU216HW,2013-05-04 15:30:00,
2013-05-04 08:31:00,66.2,22.3,29.81,North,0,0.0,0.0,19,0.00,,,0.00,WUHU216HW,2013-05-04 15:31:00,
2013-05-04 08:36:00,66.2,22.3,29.81,North,0,0.0,0.0,19,0.00,,,0.00,WUHU216HW,2013-05-04 15:36:00,
2013-05-04 08:37:00,66.2,22.3,29.81,North,0,0.0,0.0,19,0.00,,,0.00,WUHU216HW,2013-05-04 15:37:00,
2013-05-04 09:00:00,68.9,21.4,29.81,North,0,0.0,0.0,17,0.00,,,0.00,WUHU216HW,2013-05-04 16:00:00,
2013-05-04 09:01:00,68.9,21.4,29.81,North,0,0.0,0.0,17,0.00,,,0.00,WUHU216HW,2013-05-04 16:01:00,
2013-05-04 09:02:00,68.9,21.4,29.81,North,0,0.0,0.0,17,0.00,,,0.00,WUHU216HW,2013-05-04 16:02:00,
2013-05-04 09:05:00,68.9,21.4,29.81,North,0,0.0,0.0,17,0.00,,,0.00,WUHU216HW,2013-05-04 16:05:00,
2013-05-04 09:06:00,68.9,21.4,29.81,North,0,0.0,0.0,17,0.00,,,0.00,WUHU216HW,2013-05-04 16:06:00,
2013-05-04 09:07:00,68.9,21.4,29.81,North,0,0.0,0.0,17,0.00,,,0.00,WUHU216HW,2013-05-04 16:07:00,
2013-05-04 09:30:00,70.2,20.8,29.81,North,0,0.0,0.0,16,0.00,,,0.00,WUHU216HW,2013-05-04 16:30:00,
2013-05-04 09:31:00,70.2,20.8,29.81,North,0,0.0,0.0,16,0.00,,,0.00,WUHU216HW,2013-05-04 16:31:00,
2013-05-04 09:35:00,70.2,20.8,29.81,North,0,0.0,0.0,16,0.00,,,0.00,WUHU216HW,2013-05-04 16:35:00,
2013-05-04 09:36:00,70.2,20.8,29.81,North,0,0.0,0.0,16,0.00,,,0.00,WUHU216HW,2013-05-04 16:36:00,
2013-05-04 09:37:00,70.2,20.8,29.81,North,0,0.0,0.0,16,0.00,,,0.00,WUHU216HW,2013-05-04 16:37:00,
2013-05-04 10:00:00,72.0,22.2,29.80,North,0,0.0,0.0,16,0.00,,,0.00,WUHU216HW,2013-05-04 17:00:00,
2013-05-04 10:01:00,72.0,22.2,29.80,North,0,0.0,0.0,16,0.00,,,0.00,WUHU216HW,2013-05-04 17:01:00,
2013-05-04 10:06:00,72.0,22.2,29.80,North,0,0.0,0.0,16,0.00,,,0.00,WUHU216HW,2013-05-04 17:06:00,
2013-05-04 10:07:00,72.0,22.2,29.80,North,0,0.0,0.0,16,0.00,,,0.00,WUHU216HW,2013-05-04 17:07:00,
2013-05-04 10:08:00,72.0,22.2,29.80,North,0,0.0,0.0,16,0.00,,,0.00,WUHU216HW,2013-05-04 17:08:00,
2013-05-04 10:30:00,73.8,18.9,29.79,North,0,0.0,0.0,13,0.00,,,0.00,WUHU216HW,2013-05-04 17:30:00,
2013-05-04 10:31:00,73.8,18.9,29.79,North,0,0.0,0.0,13,0.00,,,0.00,WUHU216HW,2013-05-04 17:31:00,
2013-05-04 10:32:00,73.8,18.9,29.79,North,0,0.0,0.0,13,0.00,,,0.00,WUHU216HW,2013-05-04 17:32:00,
2013-05-04 10:36:00,73.8,18.9,29.79,North,0,0.0,0.0,13,0.00,,,0.00,WUHU216HW,2013-05-04 17:36:00,
2013-05-04 10:37:00,73.8,18.9,29.79,North,0,0.0,0.0,13,0.00,,,0.00,WUHU216HW,2013-05-04 17:37:00,
2013-05-04 10:38:00,73.8,18.9,29.79,North,0,0.0,0.0,13,0.00,,,0.00,WUHU216HW,2013-05-04 17:38:00,
2013-05-04 10:39:00,73.8,18.9,29.79,North,0,0.0,0.0,13,0.00,,,0.00,WUHU216HW,2013-05-04 17:39:00,
2013-05-04 11:00:00,76.1,20.6,29.78,North,0,0.0,0.0,13,0.00,,,0.00,WUHU216HW,2013-05-04 18:00:00,
2013-05-04 11:01:00,76.1,20.6,29.78,North,0,0.0,0.0,13,0.00,,,0.00,WUHU216HW,2013-05-04 18:01:00,
2013-05-04 11:05:00,76.1,20.6,29.78,North,0,0.0,0.0,13,0.00,,,0.00,WUHU216HW,2013-05-04 18:05:00,
2013-05-04 11:06:00,76.1,20.6,29.78,North,0,0.0,0.0,13,0.00,,,0.00,WUHU216HW,2013-05-04 18:06:00,
2013-05-04 11:30:00,77.8,20.3,29.77,North,0,0.0,0.0,12,0.00,,,0.00,WUHU216HW,2013-05-04 18:30:00,
2013-05-04 11:31:00,77.8,20.3,29.77,North,0,0.0,0.0,12,0.00,,,0.00,WUHU216HW,2013-05-04 18:31:00,
2013-05-04 11:36:00,77.8,20.3,29.77,North,0,0.0,0.0,12,0.00,,,0.00,WUHU216HW,2013-05-04 18:36:00,
2013-05-04 11:37:00,77.8,20.3,29.77,North,0,0.0,0.0,12,0.00,,,0.00,WUHU216HW,2013-05-04 18:37:00,
2013-05-04 12:00:00,79.9,20.2,29.75,North,0,0.0,0.0,11,0.00,,,0.00,WUHU216HW,2013-05-04 19:00:00,
2013-05-04 12:01:00,79.9,20.2,29.75,North,0,0.0,0.0,11,0.00,,,0.00,WUHU216HW,2013-05-04 19:01:00,
2013-05-04 12:05:00,79.9,20.2,29.75,North,0,0.0,0.0,11,0.00,,,0.00,WUHU216HW,2013-05-04 19:05:00,
2013-05-04 12:06:00,79.9,20.2,29.75,North,0,0.0,0.0,11,0.00,,,0.00,WUHU216HW,2013-05-04 19:06:00,
2013-05-04 12:30:00,81.4,21.3,29.74,North,0,0.0,0.0,11,0.00,,,0.00,WUHU216HW,2013-05-04 19:30:00,
2013-05-04 12:31:00,81.4,21.3,29.74,North,0,0.0,0.0,11,0.00,,,0.00,WUHU216HW,2013-05-04 19:31:00,
2013-05-04 12:35:00,81.4,21.3,29.74,North,0,0.0,0.0,11,0.00,,,0.00,WUHU216HW,2013-05-04 19:35:00,
2013-05-04 12:36:00,81.4,21.3,29.74,North,0,0.0,0.0,11,0.00,,,0.00,WUHU216HW,2013-05-04 19:36:00,
2013-05-04 12:37:00,81.4,21.3,29.74,North,0,0.0,0.0,11,0.00,,,0.00,WUHU216HW,2013-05-04 19:37:00,
2013-05-04 13:00:00,83.2,21.1,29.73,North,0,0.0,0.0,8,0.00,,,0.00,WUHU216HW,2013-05-04 20:00:00,
2013-05-04 13:01:00,83.2,21.1,29.73,North,0,0.0,0.0,8,0.00,,,0.00,WUHU216HW,2013-05-04 20:01:00,
2013-05-04 13:02:00,83.2,21.1,29.73,North,0,0.0,0.0,8,0.00,,,0.00,WUHU216HW,2013-05-04 20:02:00,
2013-05-04 13:05:00,83.2,21.1,29.73,North,0,0.0,0.0,8,0.00,,,0.00,WUHU216HW,2013-05-04 20:05:00,
2013-05-04 13:06:00,83.2,21.1,29.73,North,0,0.0,0.0,8,0.00,,,0.00,WUHU216HW,2013-05-04 20:06:00,
2013-05-04 13:07:00,83.2,21.1,29.73,North,0,0.0,0.0,8,0.00,,,0.00,WUHU216HW,2013-05-04 20:07:00,
2013-05-04 13:30:00,83.3,21.2,29.73,North,0,0.0,0.0,8,0.00,,,0.00,WUHU216HW,2013-05-04 20:30:00,
2013-05-04 13:31:00,83.3,21.2,29.73,North,0,0.0,0.0,8,0.00,,,0.00,WUHU216HW,2013-05-04 20:31:00,
2013-05-04 13:32:00,83.3,21.2,29.73,North,0,0.0,0.0,8,0.00,,,0.00,WUHU216HW,2013-05-04 20:32:00,
2013-05-04 13:35:00,83.3,21.2,29.73,North,0,0.0,0.0,8,0.00,,,0.00,WUHU216HW,2013-05-04 20:35:00,
2013-05-04 13:36:00,83.3,21.2,29.73,North,0,0.0,0.0,8,0.00,,,0.00,WUHU216HW,2013-05-04 20:36:00,
2013-05-04 13:38:00,83.3,21.2,29.73,North,0,0.0,0.0,8,0.00,,,0.00,WUHU216HW,2013-05-04 20:38:00,
2013-05-04 14:00:00,83.9,21.5,29.72,North,0,0.0,0.0,6,0.00,,,0.00,WUHU216HW,2013-05-04 21:00:00,
2013-05-04 14:01:00,83.9,21.5,29.72,North,0,0.0,0.0,6,0.00,,,0.00,WUHU216HW,2013-05-04 21:01:00,
2013-05-04 14:05:00,83.9,21.5,29.72,North,0,0.0,0.0,6,0.00,,,0.00,WUHU216HW,2013-05-04 21:05:00,
2013-05-04 14:06:00,83.9,21.5,29.72,North,0,0.0,0.0,6,0.00,,,0.00,WUHU216HW,2013-05-04 21:06:00,
2013-05-04 14:07:00,83.9,21.5,29.72,North,0,0.0,0.0,6,0.00,,,0.00,WUHU216HW,2013-05-04 21:07:00,
2013-05-04 14:30:00,84.1,21.7,29.71,North,0,0.0,0.0,5,0.00,,,0.00,WUHU216HW,2013-05-04 21:30:00,
2013-05-04 14:32:00,84.1,21.7,29.71,North,0,0.0,0.0,5,0.00,,,0.00,WUHU216HW,2013-05-04 21:32:00,
2013-05-04 14:35:00,84.1,21.7,29.71,North,0,0.0,0.0,5,0.00,,,0.00,WUHU216HW,2013-05-04 21:35:00,
2013-05-04 14:36:00,84.1,21.7,29.71,North,0,0.0,0.0,5,0.00,,,0.00,WUHU216HW,2013-05-04 21:36:00,
2013-05-04 14:37:00,84.1,21.7,29.71,North,0,0.0,0.0,5,0.00,,,0.00,WUHU216HW,2013-05-04 21:37:00,
2013-05-04 14:38:00,84.1,21.7,29.71,North,0,0.0,0.0,5,0.00,,,0.00,WUHU216HW,2013-05-04 21:38:00,
2013-05-04 15:00:00,84.8,22.2,29.70,North,0,0.0,0.0,6,0.00,,,0.00,WUHU216HW,2013-05-04 22:00:00,
2013-05-04 15:01:00,84.8,22.2,29.70,North,0,0.0,0.0,6,0.00,,,0.00,WUHU216HW,2013-05-04 22:01:00,
2013-05-04 15:05:00,84.8,22.2,29.70,North,0,0.0,0.0,6,0.00,,,0.00,WUHU216HW,2013-05-04 22:05:00,
2013-05-04 15:06:00,84.8,22.2,29.70,North,0,0.0,0.0,6,0.00,,,0.00,WUHU216HW,2013-05-04 22:06:00,
2013-05-04 15:07:00,84.8,22.2,29.70,North,0,0.0,0.0,6,0.00,,,0.00,WUHU216HW,2013-05-04 22:07:00,
2013-05-04 15:30:00,83.5,21.2,29.70,North,0,0.0,0.0,6,0.00,,,0.00,WUHU216HW,2013-05-04 22:30:00,
2013-05-04 15:31:00,83.5,21.2,29.70,North,0,0.0,0.0,6,0.00,,,0.00,WUHU216HW,2013-05-04 22:31:00,
2013-05-04 15:32:00,83.5,21.2,29.70,North,0,0.0,0.0,6,0.00,,,0.00,WUHU216HW,2013-05-04 22:32:00,
2013-05-04 15:35:00,83.5,21.2,29.70,North,0,0.0,0.0,6,0.00,,,0.00,WUHU216HW,2013-05-04 22:35:00,
2013-05-04 15:36:00,83.5,21.2,29.70,North,0,0.0,0.0,6,0.00,,,0.00,WUHU216HW,2013-05-04 22:36:00,
2013-05-04 15:38:00,83.5,21.2,29.70,North,0,0.0,0.0,6,0.00,,,0.00,WUHU216HW,2013-05-04 22:38:00,
2013-05-04 16:00:00,83.7,21.4,29.69,North,0,0.0,0.0,6,0.00,,,0.00,WUHU216HW,2013-05-04 23:00:00,
2013-05-04 16:01:00,83.7,21.4,29.69,North,0,0.0,0.0,6,0.00,,,0.00,WUHU216HW,2013-05-04 23:01:00,
2013-05-04 16:02:00,83.7,21.4,29.69,North,0,0.0,0.0,6,0.00,,,0.00,WUHU216HW,2013-05-04 23:02:00,
2013-05-04 16:05:00,83.7,21.4,29.69,North,0,0.0,0.0,6,0.00,,,0.00,WUHU216HW,2013-05-04 23:05:00,
2013-05-04 16:07:00,83.7,21.4,29.69,North,0,0.0,0.0,6,0.00,,,0.00,WUHU216HW,2013-05-04 23:07:00,
2013-05-04 16:08:00,83.7,21.4,29.69,North,0,0.0,0.0,6,0.00,,,0.00,WUHU216HW,2013-05-04 23:08:00,
2013-05-04 16:30:00,83.2,21.1,29.69,North,0,0.0,0.0,6,0.00,,,0.00,WUHU216HW,2013-05-04 23:30:00,
2013-05-04 16:31:00,83.2,21.1,29.69,North,0,0.0,0.0,6,0.00,,,0.00,WUHU216HW,2013-05-04 23:31:00,
2013-05-04 16:32:00,83.2,21.1,29.69,North,0,0.0,0.0,6,0.00,,,0.00,WUHU216HW,2013-05-04 23:32:00,
2013-05-04 16:35:00,83.2,21.1,29.69,North,0,0.0,0.0,6,0.00,,,0.00,WUHU216HW,2013-05-04 23:35:00,
2013-05-04 16:36:00,83.2,21.1,29.69,North,0,0.0,0.0,6,0.00,,,0.00,WUHU216HW,2013-05-04 23:36:00,
2013-05-04 16:37:00,83.2,21.1,29.69,North,0,0.0,0.0,6,0.00,,,0.00,WUHU216HW,2013-05-04 23:37:00,
2013-05-04 16:38:00,83.2,21.1,29.69,North,0,0.0,0.0,6,0.00,,,0.00,WUHU216HW,2013-05-04 23:38:00,
2013-05-04 17:00:00,82.8,20.8,29.69,North,0,0.0,0.0,7,0.00,,,0.00,WUHU216HW,2013-05-05 00:00:00,
2013-05-04 17:01:00,82.8,20.8,29.69,North,0,0.0,0.0,7,0.00,,,0.00,WUHU216HW,2013-05-05 00:01:00,
2013-05-04 17:05:00,82.8,20.8,29.69,North,0,0.0,0.0,7,0.00,,,0.00,WUHU216HW,2013-05-05 00:05:00,
2013-05-04 17:06:00,82.8,20.8,29.69,North,0,0.0,0.0,7,0.00,,,0.00,WUHU216HW,2013-05-05 00:06:00,
2013-05-04 17:07:00,82.8,20.8,29.69,North,0,0.0,0.0,7,0.00,,,0.00,WUHU216HW,2013-05-05 00:07:00,
2013-05-04 17:30:00,81.7,20.0,29.69,North,0,0.0,0.0,7,0.00,,,0.00,WUHU216HW,2013-05-05 00:30:00,
2013-05-04 17:31:00,81.7,20.0,29.69,North,0,0.0,0.0,7,0.00,,,0.00,WUHU216HW,2013-05-05 00:31:00,
2013-05-04 17:33:00,81.7,20.0,29.69,North,0,0.0,0.0,7,0.00,,,0.00,WUHU216HW,2013-05-05 00:33:00,
2013-05-04 17:36:00,81.7,20.0,29.69,North,0,0.0,0.0,7,0.00,,,0.00,WUHU216HW,2013-05-05 00:36:00,
2013-05-04 17:38:00,81.7,20.0,29.69,North,0,0.0,0.0,7,0.00,,,0.00,WUHU216HW,2013-05-05 00:38:00,
2013-05-04 17:39:00,81.7,20.0,29.69,North,0,0.0,0.0,7,0.00,,,0.00,WUHU216HW,2013-05-05 00:39:00,
2013-05-04 18:00:00,79.9,18.6,29.70,North,0,0.0,0.0,7,0.00,,,0.00,WUHU216HW,2013-05-05 01:00:00,
2013-05-04 18:01:00,79.9,18.6,29.70,North,0,0.0,0.0,7,0.00,,,0.00,WUHU216HW,2013-05-05 01:01:00,
2013-05-04 18:02:00,79.9,18.6,29.70,North,0,0.0,0.0,7,0.00,,,0.00,WUHU216HW,2013-05-05 01:02:00,
2013-05-04 18:05:00,79.9,18.6,29.70,North,0,0.0,0.0,7,0.00,,,0.00,WUHU216HW,2013-05-05 01:05:00,
2013-05-04 18:06:00,79.9,18.6,29.70,North,0,0.0,0.0,7,0.00,,,0.00,WUHU216HW,2013-05-05 01:06:00,
2013-05-04 18:07:00,79.9,18.6,29.70,North,0,0.0,0.0,7,0.00,,,0.00,WUHU216HW,2013-05-05 01:07:00,
2013-05-04 18:30:00,78.8,17.6,29.70,North,0,0.0,0.0,8,0.00,,,0.00,WUHU216HW,2013-05-05 01:30:00,
2013-05-04 18:32:00,78.8,17.6,29.70,North,0,0.0,0.0,8,0.00,,,0.00,WUHU216HW,2013-05-05 01:32:00,
2013-05-04 18:35:00,78.8,17.6,29.70,North,0,0.0,0.0,8,0.00,,,0.00,WUHU216HW,2013-05-05 01:35:00,
2013-05-04 18:36:00,78.8,17.6,29.70,North,0,0.0,0.0,8,0.00,,,0.00,WUHU216HW,2013-05-05 01:36:00,
2013-05-04 18:38:00,78.8,17.6,29.70,North,0,0.0,0.0,8,0.00,,,0.00,WUHU216HW,2013-05-05 01:38:00,
2013-05-04 18:39:00,78.8,17.6,29.70,North,0,0.0,0.0,8,0.00,,,0.00,WUHU216HW,2013-05-05 01:39:00,
2013-05-04 19:00:00,77.6,16.7,29.71,North,0,0.0,0.0,8,0.00,,,0.00,WUHU216HW,2013-05-05 02:00:00,
2013-05-04 19:01:00,77.6,16.7,29.71,North,0,0.0,0.0,8,0.00,,,0.00,WUHU216HW,2013-05-05 02:01:00,
2013-05-04 19:05:00,77.6,16.7,29.71,North,0,0.0,0.0,8,0.00,,,0.00,WUHU216HW,2013-05-05 02:05:00,
2013-05-04 19:06:00,77.6,16.7,29.71,North,0,0.0,0.0,8,0.00,,,0.00,WUHU216HW,2013-05-05 02:06:00,
2013-05-04 19:07:00,77.6,16.7,29.71,North,0,0.0,0.0,8,0.00,,,0.00,WUHU216HW,2013-05-05 02:07:00,
2013-05-04 19:30:00,76.0,15.5,29.71,North,0,0.0,0.0,9,0.00,,,0.00,WUHU216HW,2013-05-05 02:30:00,
2013-05-04 19:35:00,76.0,15.5,29.71,North,0,0.0,0.0,9,0.00,,,0.00,WUHU216HW,2013-05-05 02:35:00,
2013-05-04 19:36:00,76.0,15.5,29.71,North,0,0.0,0.0,9,0.00,,,0.00,WUHU216HW,2013-05-05 02:36:00,
2013-05-04 19:37:00,76.0,15.5,29.71,North,0,0.0,0.0,9,0.00,,,0.00,WUHU216HW,2013-05-05 02:37:00,
2013-05-04 20:00:00,74.0,14.0,29.72,North,0,0.0,0.0,10,0.00,,,0.00,WUHU216HW,2013-05-05 03:00:00,
2013-05-04 20:01:00,74.0,14.0,29.72,North,0,0.0,0.0,10,0.00,,,0.00,WUHU216HW,2013-05-05 03:01:00,
2013-05-04 20:05:00,74.0,14.0,29.72,North,0,0.0,0.0,10,0.00,,,0.00,WUHU216HW,2013-05-05 03:05:00,
2013-05-04 20:06:00,74.0,14.0,29.72,North,0,0.0,0.0,10,0.00,,,0.00,WUHU216HW,2013-05-05 03:06:00,
2013-05-04 20:07:00,74.0,14.0,29.72,North,0,0.0,0.0,10,0.00,,,0.00,WUHU216HW,2013-05-05 03:07:00,
2013-05-04 20:30:00,71.5,13.7,29.72,North,0,0.0,0.0,11,0.00,,,0.00,WUHU216HW,2013-05-05 03:30:00,
2013-05-04 20:31:00,71.5,13.7,29.72,North,0,0.0,0.0,11,0.00,,,0.00,WUHU216HW,2013-05-05 03:31:00,
2013-05-04 20:32:00,71.5,13.7,29.72,North,0,0.0,0.0,11,0.00,,,0.00,WUHU216HW,2013-05-05 03:32:00,
2013-05-04 20:36:00,71.5,13.7,29.72,North,0,0.0,0.0,11,0.00,,,0.00,WUHU216HW,2013-05-05 03:36:00,
2013-05-04 20:37:00,71.5,13.7,29.72,North,0,0.0,0.0,11,0.00,,,0.00,WUHU216HW,2013-05-05 03:37:00,
2013-05-04 21:00:00,70.9,13.3,29.73,North,0,0.0,0.0,11,0.00,,,0.00,WUHU216HW,2013-05-05 04:00:00,
2013-05-04 21:01:00,70.9,13.3,29.73,North,0,0.0,0.0,11,0.00,,,0.00,WUHU216HW,2013-05-05 04:01:00,
2013-05-04 21:02:00,70.9,13.3,29.73,North,0,0.0,0.0,11,0.00,,,0.00,WUHU216HW,2013-05-05 04:02:00,
2013-05-04 21:06:00,70.9,13.3,29.73,North,0,0.0,0.0,11,0.00,,,0.00,WUHU216HW,2013-05-05 04:06:00,
2013-05-04 21:07:00,70.9,13.3,29.73,North,0,0.0,0.0,11,0.00,,,0.00,WUHU216HW,2013-05-05 04:07:00,
2013-05-04 21:08:00,70.9,13.3,29.73,North,0,0.0,0.0,11,0.00,,,0.00,WUHU216HW,2013-05-05 04:08:00,
2013-05-04 21:30:00,69.8,14.0,29.74,North,0,0.0,0.0,12,0.00,,,0.00,WUHU216HW,2013-05-05 04:30:00,
2013-05-04 21:31:00,69.8,14.0,29.74,North,0,0.0,0.0,12,0.00,,,0.00,WUHU216HW,2013-05-05 04:31:00,
2013-05-04 21:32:00,69.8,14.0,29.74,North,0,0.0,0.0,12,0.00,,,0.00,WUHU216HW,2013-05-05 04:32:00,
2013-05-04 21:35:00,69.8,14.0,29.74,North,0,0.0,0.0,12,0.00,,,0.00,WUHU216HW,2013-05-05 04:35:00,
2013-05-04 21:36:00,69.8,14.0,29.74,North,0,0.0,0.0,12,0.00,,,0.00,WUHU216HW,2013-05-05 04:36:00,
2013-05-04 21:37:00,69.8,14.0,29.74,North,0,0.0,0.0,12,0.00,,,0.00,WUHU216HW,2013-05-05 04:37:00,
2013-05-04 21:38:00,69.8,14.0,29.74,North,0,0.0,0.0,12,0.00,,,0.00,WUHU216HW,2013-05-05 04:38:00,
2013-05-04 22:00:00,69.5,13.8,29.75,North,0,0.0,0.0,12,0.00,,,0.00,WUHU216HW,2013-05-05 05:00:00,
2013-05-04 22:01:00,69.5,13.8,29.75,North,0,0.0,0.0,12,0.00,,,0.00,WUHU216HW,2013-05-05 05:01:00,
2013-05-04 22:03:00,69.5,13.8,29.75,North,0,0.0,0.0,12,0.00,,,0.00,WUHU216HW,2013-05-05 05:03:00,
2013-05-04 22:05:00,69.5,13.8,29.75,North,0,0.0,0.0,12,0.00,,,0.00,WUHU216HW,2013-05-05 05:05:00,
2013-05-04 22:06:00,69.5,13.8,29.75,North,0,0.0,0.0,12,0.00,,,0.00,WUHU216HW,2013-05-05 05:06:00,
2013-05-04 22:09:00,69.5,13.8,29.75,North,0,0.0,0.0,12,0.00,,,0.00,WUHU216HW,2013-05-05 05:09:00,
2013-05-04 22:30:00,68.0,14.3,29.75,North,0,0.0,0.0,13,0.00,,,0.00,WUHU216HW,2013-05-05 05:30:00,
2013-05-04 22:31:00,68.0,14.3,29.75,North,0,0.0,0.0,13,0.00,,,0.00,WUHU216HW,2013-05-05 05:31:00,
2013-05-04 22:32:00,68.0,14.3,29.75,North,0,0.0,0.0,13,0.00,,,0.00,WUHU216HW,2013-05-05 05:32:00,
2013-05-04 22:35:00,68.0,14.3,29.75,North,0,0.0,0.0,13,0.00,,,0.00,WUHU216HW,2013-05-05 05:35:00,
2013-05-04 22:36:00,68.0,14.3,29.75,North,0,0.0,0.0,13,0.00,,,0.00,WUHU216HW,2013-05-05 05:36:00,
2013-05-04 22:37:00,68.0,14.3,29.75,North,0,0.0,0.0,13,0.00,,,0.00,WUHU216HW,2013-05-05 05:37:00,
2013-05-04 22:39:00,68.0,14.3,29.75,North,0,0.0,0.0,13,0.00,,,0.00,WUHU216HW,2013-05-05 05:39:00,
2013-05-04 23:00:00,68.0,14.3,29.75,North,0,0.0,0.0,13,0.00,,,0.00,WUHU216HW,2013-05-05 06:00:00,
2013-05-04 23:01:00,68.0,14.3,29.75,North,0,0.0,0.0,13,0.00,,,0.00,WUHU216HW,2013-05-05 06:01:00,
2013-05-04 23:02:00,68.0,14.3,29.75,North,0,0.0,0.0,13,0.00,,,0.00,WUHU216HW,2013-05-05 06:02:00,
2013-05-04 23:05:00,68.0,14.3,29.75,North,0,0.0,0.0,13,0.00,,,0.00,WUHU216HW,2013-05-05 06:05:00,
2013-05-04 23:06:00,68.0,14.3,29.75,North,0,0.0,0.0,13,0.00,,,0.00,WUHU216HW,2013-05-05 06:06:00,
2013-05-04 23:07:00,68.0,14.3,29.75,North,0,0.0,0.0,13,0.00,,,0.00,WUHU216HW,2013-05-05 06:07:00,
2013-05-04 23:08:00,68.0,14.3,29.75,North,0,0.0,0.0,13,0.00,,,0.00,WUHU216HW,2013-05-05 06:08:00,
2013-05-04 23:30:00,67.0,16.7,29.75,North,0,0.0,0.0,15,0.00,,,0.00,WUHU216HW,2013-05-05 06:30:00,
2013-05-04 23:31:00,67.0,16.7,29.75,North,0,0.0,0.0,15,0.00,,,0.00,WUHU216HW,2013-05-05 06:31:00,
2013-05-04 23:32:00,67.0,16.7,29.75,North,0,0.0,0.0,15,0.00,,,0.00,WUHU216HW,2013-05-05 06:32:00,
2013-05-04 23:35:00,67.0,16.7,29.75,North,0,0.0,0.0,15,0.00,,,0.00,WUHU216HW,2013-05-05 06:35:00,
2013-05-04 23:36:00,67.0,16.7,29.75,North,0,0.0,0.0,15,0.00,,,0.00,WUHU216HW,2013-05-05 06:36:00,
2013-05-04 23:37:00,67.0,16.7,29.75,North,0,0.0,0.0,15,0.00,,,0.00,WUHU216HW,2013-05-05 06:37:00,
2013-05-04 23:38:00,67.0,16.7,29.75,North,0,0.0,0.0,15,0.00,,,0.00,WUHU216HW,2013-05-05 06:38:00,